Tracking 18793 objects as of 24-September-2017
HD Live streaming from Space Station
objects crossing your sky now

SKYNET 1

Track SKYNET 1 now!
SKYNET 1 is classified as:


NORAD ID: 4250
Int'l Code: 1969-101A
Perigee: 35,690.4 km
Apogee: 35,895.6 km
Inclination: 7.2 °
Period: 1,436.1 minutes
Semi major axis: 42163 km
RCS: 1.2928 m2 (large)
Launch date: November 22, 1969
Source: United Kingdom (UK)
Launch site: AIR FORCE EASTERN TEST RANGE (AFETR)
aabbcc
Your satellite tracking list
Your tracking list is empty





NASA's NSSDC Master Catalog

Two Line Element Set (TLE):
1  4250U 69101A   17266.58137740 -.00000106 +00000-0 +00000-0 0  9993
2  4250 007.2018 304.9878 0024336 239.8194 280.1154 01.00274427102544
Source of the keplerian elements: AFSPC